Weather in Ikhrek

Russia / Republic of Dagestan     41°41′38″N   47°12′38″E
temp.,
°C
wind,
m/s
gust,
m/s
humid.,
%
clouds,
%
prec.,
mm/h
press.,
hPa
HPBL,
m
25 june, sat
sat2500:00+6wnw119773 1.3 101543
03:00+5wnw11945 1.3 101516
06:00+9w11795 0.0 101483
09:00+13ssw33615 0.3 10121068
12:00+15sw36548 0.8 10111753
15:00+14wsw3459100 1.1 10121198
18:00+13wsw126181 0.2 1012473
21:00+8wnw1169100 0.2 101410
26 june, sun
sun2600:00+5nnw229193 7.3 101635
03:00+8e0187100 8.7 101416
06:00+10sw2278100 0.4 1012101
09:00+12ssw3369100 1.3 1011888
12:00+14sse2562100 1.1 10091140
15:00+15s385235 3.1 10081955
18:00+13ssw016798 2.2 1009117
21:00+8nw1194100 5.9 101551
27 june, mon
mon2700:00+7nnw22802 0.3 101310
03:00+7nnw11760 0.3 101310
06:00+11nne11670 0.0 101346
09:00+16se22540 0.0 10111019
12:00+18ese34463 0.2 10102000
15:00+17ese33524 0.9 10101704
18:00+14ese227311 2.6 1013174
21:00+9nne2284100 3.9 101517
28 june, tue
tue2800:00+9nnw227841 1.4 101514
03:00+8nw22734 1.4 101410
06:00+11w11700 0.0 101461
09:00+16sw33530 0.0 10111187
12:00+18sw34434 0.1 10102044
15:00+18s34494 0.5 10101936
18:00+14s23721 0.7 1013350
21:00+8n11900 1.4 101611
29 june, wed
wed2900:00+7nne22870 0.1 101611
03:00+7ne22893 0.2 101718
06:00+9e11876 0.0 1016119
09:00+13sse327417 0.0 1014765
12:00+15sse336713 0.8 10131098
15:00+13sse337975 3.2 1015844
18:00+11s238186 1.0 1015362
21:00+9sw11890 1.2 101728